Flag for Australia

Past Weather in 42°52'45.4"S, 147°20'27.1"E, Australia — Yesterday and Last 2 Weeks

Currently: 57 °F. Clear. (Weather station: Hobart Airport, Australia). See more current weather

Past Weather in 42°52'45.4"S, 147°20'27.1"E — Graph

°F

42°52'45.4"S, 147°20'27.1"E Temperature Yesterday

Maximum temperature yesterday: 64 °F (at 11:30 am)
Minimum temperature yesterday: 52 °F (at 4:00 am)
Average temperature yesterday: 58 °F

High & Low Weather Summary for the Past Weeks

 TemperatureHumidityPressure
High64 °F (May 15, 1:00 pm)100% (May 17, 7:00 am)30.48 "Hg (May 17, 7:00 am)
Low36 °F (May 26, 4:30 am)45% (May 27, 12:30 pm)29.89 "Hg (May 30, 4:00 am)
Average51 °F77%30.21 "Hg
* Reported May 15 5:00 am — May 30 5:30 am, 42°52'45.4"S, 147°20'27.1"E. Weather by CustomWeather, © 2024

Note: Actual official high and low records may vary slightly from our data, if they occured in-between our weather recording intervals... More about our weather records

42°52'45.4"S, 147°20'27.1"E Weather History for the Previous 24 Hours

Scroll right to see more
 ConditionsComfort  
Time TempWeatherWind HumidityBarometerVisibility
5:30 am
Thu, May 30
54 °FClear.15 mph72%29.89 "HgN/A
5:00 am55 °FClear.14 mph67%29.89 "HgN/A
4:30 am55 °FClear.15 mph63%29.89 "HgN/A
4:00 am55 °FClear.14 mph63%29.89 "HgN/A
3:30 am57 °FClear.14 mph59%29.92 "HgN/A
3:00 am55 °FClear.12 mph63%29.92 "HgN/A
2:30 am55 °FClear.17 mph63%29.92 "HgN/A
2:00 am55 °FClear.18 mph67%29.92 "HgN/A
1:30 am54 °FClear.21 mph72%29.92 "HgN/A
1:22 am55 °FClear.22 mph67%29.92 "HgN/A
1:00 am55 °FClear.22 mph67%29.92 "HgN/A
12:00 am55 °FClear.20 mph67%29.92 "HgN/A
11:30 pm
Wed, May 29
55 °FClear.20 mph72%29.92 "Hg10 mi
11:00 pm55 °FClear.20 mph72%29.92 "Hg10 mi
10:38 pm55 °FClear.21 mph72%29.95 "Hg10 mi
10:00 pm57 °FClear.20 mph67%29.95 "Hg10 mi
9:07 pm57 °FClear.17 mph67%29.95 "Hg10 mi
8:30 pm57 °FClear.15 mph67%29.98 "Hg10 mi
8:00 pm57 °FClear.12 mph67%29.98 "Hg10 mi
7:30 pm57 °FClear.10 mph67%29.98 "Hg10 mi
7:00 pm59 °FClear.13 mph68%29.98 "Hg10 mi
6:00 pm59 °FClear.9 mph68%29.98 "Hg10 mi
5:00 pm59 °FClear.8 mph68%30.01 "Hg10 mi
4:30 pm61 °FSunny.9 mph68%30.01 "Hg10 mi
4:00 pm61 °FSunny.13 mph68%30.01 "Hg10 mi
3:30 pm63 °FSunny.13 mph64%30.01 "Hg10 mi
3:00 pm63 °FSunny.10 mph64%30.01 "Hg10 mi
2:30 pm63 °FSunny.10 mph59%30.01 "Hg10 mi
2:00 pm63 °FSunny.12 mph64%30.01 "Hg10 mi
1:30 pm63 °FSunny.12 mph64%30.04 "Hg10 mi
1:00 pm63 °FSunny.10 mph64%30.04 "Hg10 mi
12:30 pm63 °FSunny.12 mph64%30.04 "Hg10 mi
12:00 pm63 °FSunny.9 mph59%30.07 "Hg10 mi
11:30 am64 °FSunny.12 mph56%30.07 "Hg10 mi
11:00 am61 °FSunny.13 mph63%30.09 "Hg10 mi
10:30 am59 °FSunny.16 mph63%30.09 "Hg10 mi
10:00 am59 °FSunny.20 mph59%30.07 "Hg10 mi
9:30 am57 °FSunny.20 mph63%30.07 "Hg10 mi
8:30 am55 °FSunny.14 mph67%30.09 "Hg10 mi
8:00 am55 °FSunny.14 mph67%30.09 "Hg10 mi
7:30 am55 °FSunny.15 mph67%30.07 "Hg10 mi
7:00 am55 °FClear.17 mph67%30.07 "Hg10 mi
Weather by CustomWeather, © 2024

See weather overview